Location: Bottens
(46.6171°N, 6.6605°E)
Time: 08:10:29
(UTC+00:00)

Cosmos 1825 - Pass Details

Date: 31 October 2021
Orbit: 501 x 504 km, 82.5° (Epoch: 28 November)

Event Time Altitude Azimuth Distance (km) Brightness Sun altitude
Rises 18:53:38 0° 334° (NNW) 2,609 6.2 -26.9°
Reaches altitude 10° 18:56:21 10° 313° (NW) 1,719 5.5 -27.4°
Maximum altitude 18:58:45 16° 273° (W) 1,359 5.1 -27.8°
Drops below altitude 10° 19:01:09 10° 233° (SW) 1,710 5.3 -28.2°
Sets 19:03:51 0° 212° (SSW) 2,589 6.0 -28.7°
